Location: Unspecified
(0.0000°N, 0.0000°E)
Time: 13:58:25
(UTC+02:00)

Tiros 1 despin weight - All Passes

Search period start: 19 April 2014 00:00
Search period end: 29 April 2014 00:00
Orbit: 603 x 653 km, 48.2° (Epoch: 18 April)

Date Brightness Start Highest point End Pass type
(mag) Time Alt. Az. Time Alt. Az. Time Alt. Az.
19 Apr - 06:43:59 10° SSW 06:48:23 47° SE 06:52:41 10° NE visible
19 Apr - 08:28:07 10° WNW 08:29:59 12° NW 08:31:51 10° NNW daylight
19 Apr - 18:53:22 10° NW 18:57:59 83° NE 19:02:41 10° SE daylight
20 Apr - 05:25:11 10° SSE 05:26:24 11° SE 05:27:37 10° ESE visible
20 Apr - 07:03:38 10° SW 07:08:06 55° NW 07:12:29 10° NNE visible
20 Apr - 17:32:53 10° N 17:36:06 19° NE 17:39:22 10° E daylight
20 Apr - 19:13:34 10° WNW 19:17:43 33° SW 19:21:56 10° SSE daylight
21 Apr - 05:42:10 10° SSW 05:46:14 31° SE 05:50:13 10° ENE visible
21 Apr - 07:24:37 10° W 07:27:49 19° NW 07:30:59 10° N visible
21 Apr - 17:51:21 10° NNW 17:55:50 53° NE 18:00:23 10° SE daylight
21 Apr - 19:35:47 10° WSW 19:37:32 12° SW 19:39:18 10° SSW daylight
22 Apr - 06:01:21 10° SW 06:05:57 87° NW 06:10:27 10° NE visible
22 Apr - 16:32:00 10° NNE 16:33:54 12° NE 16:35:49 10° ENE daylight
22 Apr - 18:11:05 10° NW 18:15:31 50° SW 18:20:03 10° SSE daylight
23 Apr - 04:40:33 10° S 04:44:01 21° SE 04:47:26 10° E visible
23 Apr - 06:21:42 10° WSW 06:25:38 28° NW 06:29:31 10° N visible
23 Apr - 16:49:29 10° NNW 16:53:38 34° NE 16:57:51 10° ESE daylight
23 Apr - 18:32:10 10° W 18:35:17 18° SW 18:38:26 10° S daylight
24 Apr - 04:59:12 10° SSW 05:03:45 60° SE 05:08:13 10° NE visible
24 Apr - 17:08:45 10° NW 17:13:18 78° SW 17:17:57 10° SE daylight
25 Apr - 03:39:19 10° SSE 03:41:45 14° SE 03:44:10 10° E night (unlit)
25 Apr - 05:19:02 10° WSW 05:23:25 43° NW 05:27:43 10° NNE visible
25 Apr - 15:47:49 10° N 15:51:24 23° NE 15:55:02 10° ESE daylight
25 Apr - 17:29:11 10° WNW 17:33:00 26° SW 17:36:54 10° S daylight
26 Apr - 03:57:10 10° SSW 04:01:30 39° SE 04:05:45 10° ENE night (unlit)
26 Apr - 05:40:24 10° W 05:43:06 15° NW 05:45:47 10° NNW visible
26 Apr - 16:06:34 10° NNW 16:11:04 68° NE 16:15:39 10° SE daylight
27 Apr - 04:16:33 10° SW 04:21:10 69° NW 04:25:41 10° NNE night (unlit)
27 Apr - 14:46:30 10° NNE 14:49:07 15° NE 14:51:46 10° E daylight
27 Apr - 16:26:28 10° WNW 16:30:43 39° SW 16:35:03 10° SSE daylight
28 Apr - 02:55:19 10° S 02:59:12 26° SE 03:03:02 10° ENE night (unlit)
28 Apr - 04:37:08 10° WSW 04:40:49 23° NW 04:44:26 10° N night (unlit)
28 Apr - 15:04:31 10° NNW 15:08:47 43° NE 15:13:08 10° ESE daylight
28 Apr - 16:48:01 10° W 16:50:26 14° SW 16:52:54 10° SSW daylight
